| time (UTC) | temp F | wind direction | speed knots | gust knots | rain 1hr in | rain 24hr in | rain mn in | humidity % | barometer mb |
| 20260506184807 | 54 | 314 | 1.7 | 2.6 | 0.00 | 0.33 | 0.33 | 55 | 1013.9 |
| 20260506184305 | 53 | 290 | 0.9 | 1.7 | 0.00 | 0.33 | 0.33 | 57 | 1014.1 |
| 20260506183801 | 55 | 272 | 1.7 | 3.5 | 0.00 | 0.33 | 0.33 | 56 | 1014.2 |
| 20260506183257 | 55 | 349 | 0.9 | 2.6 | 0.00 | 0.33 | 0.33 | 55 | 1014.0 |
| 20260506182754 | 56 | 11 | 3.5 | 7.8 | 0.00 | 0.33 | 0.33 | 53 | 1014.0 |
| 20260506182251 | 57 | 341 | 2.6 | 3.5 | 0.00 | 0.33 | 0.33 | 51 | 1013.9 |
| 20260506181749 | 57 | 301 | 2.6 | 3.5 | 0.00 | 0.33 | 0.33 | 51 | 1014.0 |
| 20260506181246 | 57 | 302 | 0.9 | 2.6 | 0.00 | 0.33 | 0.33 | 53 | 1013.7 |
| 20260506180743 | 58 | 286 | 1.7 | 3.5 | 0.00 | 0.33 | 0.33 | 54 | 1013.6 |
| 20260506180239 | 57 | 311 | 1.7 | 2.6 | 0.00 | 0.33 | 0.33 | 53 | 1013.8 |
| 20260506175736 | 56 | 175 | 0.9 | 1.7 | 0.00 | 0.33 | 0.33 | 55 | 1013.9 |
| 20260506175233 | 57 | 318 | 1.7 | 1.7 | 0.00 | 0.33 | 0.33 | 52 | 1013.8 |
| 20260506174730 | 56 | 6 | 0.0 | 2.6 | 0.00 | 0.33 | 0.33 | 54 | 1013.9 |
| 20260506174227 | 57 | 248 | 0.9 | 2.6 | 0.00 | 0.33 | 0.33 | 52 | 1013.9 |
| 20260506173725 | 57 | 302 | 2.6 | 5.2 | 0.00 | 0.33 | 0.33 | 52 | 1013.9 |
| 20260506173221 | 57 | 180 | 1.7 | 2.6 | 0.00 | 0.33 | 0.33 | 51 | 1013.9 |
| 20260506172718 | 57 | 287 | 1.7 | 5.2 | 0.00 | 0.33 | 0.33 | 55 | 1013.7 |
| 20260506172215 | 57 | 46 | 1.7 | 2.6 | 0.00 | 0.33 | 0.33 | 55 | 1013.8 |
| 20260506171712 | 57 | 309 | 0.9 | 1.7 | 0.00 | 0.33 | 0.33 | 57 | 1013.8 |
| 20260506171210 | 56 | 336 | 0.0 | 2.6 | 0.00 | 0.33 | 0.33 | 59 | 1013.7 |
| 20260506170707 | 55 | 245 | 1.7 | 2.6 | 0.00 | 0.33 | 0.33 | 61 | 1013.6 |
| 20260506170203 | 55 | 286 | 0.0 | 0.9 | 0.00 | 0.33 | 0.33 | 59 | 1013.8 |
| 20260506165702 | 54 | 260 | 0.9 | 2.6 | 0.00 | 0.33 | 0.33 | 61 | 1013.6 |
| 20260506165158 | 55 | 350 | 0.9 | 2.6 | 0.00 | 0.33 | 0.33 | 63 | 1013.7 |
| 20260506164655 | 55 | 141 | 0.0 | 1.7 | 0.00 | 0.33 | 0.33 | 63 | 1013.8 |
| 20260506164153 | 54 | 255 | 0.9 | 2.6 | 0.00 | 0.33 | 0.33 | 61 | 1013.8 |
| 20260506163649 | 54 | 312 | 0.9 | 7.0 | 0.00 | 0.33 | 0.33 | 62 | 1014.0 |
| 20260506163144 | 54 | 330 | 0.9 | 0.9 | 0.00 | 0.33 | 0.33 | 60 | 1014.0 |
| 20260506162640 | 55 | 249 | 2.6 | 3.5 | 0.00 | 0.33 | 0.33 | 60 | 1014.0 |
| 20260506162138 | 56 | 347 | 0.9 | 0.9 | 0.00 | 0.33 | 0.33 | 62 | 1014.1 |
| 20260506161635 | 55 | 15 | 1.7 | 5.2 | 0.00 | 0.33 | 0.33 | 62 | 1013.6 |
| 20260506161132 | 55 | 155 | 0.0 | 1.7 | 0.00 | 0.33 | 0.33 | 62 | 1013.5 |
| 20260506160630 | 55 | 302 | 0.9 | 1.7 | 0.00 | 0.33 | 0.33 | 67 | 1013.6 |
| 20260506160126 | 56 | 196 | 0.9 | 0.9 | 0.00 | 0.33 | 0.33 | 62 | 1013.5 |
| 20260506155625 | 55 | 264 | 0.9 | 1.7 | 0.00 | 0.33 | 0.33 | 59 | 1013.6 |
| 20260506155122 | 53 | 336 | 0.0 | 1.7 | 0.00 | 0.33 | 0.33 | 67 | 1013.4 |
| 20260506153219 | 53 | 228 | 0.0 | 0.9 | 0.00 | 0.33 | 0.33 | 68 | 1013.4 |
| 20260506152715 | 53 | 315 | 1.7 | 5.2 | 0.00 | 0.33 | 0.33 | 67 | 1013.4 |
| 20260506152213 | 52 | 262 | 0.9 | 3.5 | 0.00 | 0.33 | 0.33 | 69 | 1013.4 |
| 20260506151712 | 52 | 253 | 0.9 | 1.7 | 0.00 | 0.33 | 0.33 | 73 | 1013.2 |
| 20260506151208 | 52 | 349 | 1.7 | 2.6 | 0.00 | 0.33 | 0.33 | 72 | 1013.4 |
| 20260506150704 | 51 | 4 | 0.0 | 3.5 | 0.00 | 0.33 | 0.33 | 71 | 1013.3 |
| 20260506150202 | 51 | 272 | 0.9 | 2.6 | 0.00 | 0.33 | 0.33 | 73 | 1013.4 |
| 20260506145659 | 52 | 325 | 3.5 | 3.5 | 0.00 | 0.33 | 0.33 | 71 | 1013.1 |
| 20260506145155 | 52 | 274 | 0.9 | 1.7 | 0.00 | 0.33 | 0.33 | 73 | 1012.9 |
| 20260506144653 | 51 | 265 | 0.0 | 1.7 | 0.00 | 0.33 | 0.33 | 72 | 1012.9 |
| 20260506144149 | 50 | 291 | 2.6 | 3.5 | 0.00 | 0.33 | 0.33 | 72 | 1013.0 |
| 20260506143647 | 49 | 296 | 2.6 | 3.5 | 0.00 | 0.33 | 0.33 | 74 | 1012.6 |
| 20260506143145 | 49 | 249 | 1.7 | 2.6 | 0.00 | 0.33 | 0.33 | 78 | 1012.3 |
| 20260506142643 | 49 | 268 | 1.7 | 2.6 | 0.00 | 0.33 | 0.33 | 77 | 1012.2 |
| 20260506142141 | 49 | 265 | 1.7 | 1.7 | 0.00 | 0.33 | 0.33 | 77 | 1012.6 |
| 20260506141638 | 48 | 306 | 1.7 | 2.6 | 0.00 | 0.33 | 0.33 | 78 | 1012.6 |
| 20260506141136 | 48 | 277 | 2.6 | 2.6 | 0.00 | 0.33 | 0.33 | 82 | 1012.4 |
| 20260506140633 | 47 | 296 | 0.9 | 2.6 | 0.00 | 0.33 | 0.33 | 83 | 1012.4 |
| 20260506140131 | 47 | 320 | 0.9 | 3.5 | 0.00 | 0.33 | 0.33 | 82 | 1012.4 |
| 20260506135628 | 46 | 251 | 0.9 | 1.7 | 0.00 | 0.33 | 0.33 | 84 | 1012.4 |
| 20260506135124 | 46 | 315 | 3.5 | 5.2 | 0.00 | 0.33 | 0.33 | 85 | 1012.4 |
| 20260506134620 | 46 | 319 | 0.0 | 2.6 | 0.00 | 0.33 | 0.33 | 88 | 1012.3 |
| 20260506134116 | 45 | 273 | 0.0 | 2.6 | 0.00 | 0.33 | 0.33 | 87 | 1012.6 |
| 20260506133614 | 45 | 273 | 0.0 | 0.9 | 0.00 | 0.33 | 0.33 | 88 | 1012.6 |
| 20260506133111 | 45 | 284 | 0.0 | 2.6 | 0.00 | 0.33 | 0.33 | 90 | 1012.4 |
| 20260506132608 | 45 | 198 | 0.0 | 0.0 | 0.00 | 0.33 | 0.33 | 92 | 1012.3 |
| 20260506132105 | 45 | 197 | 0.9 | 0.9 | 0.00 | 0.33 | 0.33 | 92 | 1012.3 |
| 20260506131602 | 44 | 241 | 0.9 | 0.9 | 0.00 | 0.33 | 0.33 | 92 | 1012.3 |
| 20260506131059 | 44 | 276 | 1.7 | 2.6 | 0.00 | 0.33 | 0.33 | 92 | 1012.4 |
| 20260506130555 | 44 | 289 | 0.9 | 2.6 | 0.00 | 0.33 | 0.33 | 93 | 1012.2 |
| 20260506130053 | 44 | 282 | 0.0 | 1.7 | 0.00 | 0.33 | 0.33 | 94 | 1012.2 |
| 20260506125551 | 43 | 304 | 2.6 | 3.5 | 0.00 | 0.33 | 0.33 | 93 | 1011.9 |
| 20260506125049 | 43 | 304 | 0.9 | 1.7 | 0.00 | 0.33 | 0.33 | 94 | 1011.7 |
| 20260506124546 | 43 | 331 | 0.0 | 1.7 | 0.00 | 0.33 | 0.33 | 94 | 1011.6 |
| 20260506124044 | 43 | 310 | 1.7 | 3.5 | 0.00 | 0.33 | 0.33 | 95 | 1011.7 |
| 20260506123541 | 43 | 288 | 0.9 | 2.6 | 0.00 | 0.33 | 0.33 | 95 | 1011.8 |
| 20260506123040 | 43 | 275 | 0.0 | 1.7 | 0.00 | 0.33 | 0.33 | 95 | 1011.4 |
| 20260506122536 | 43 | 256 | 0.9 | 1.7 | 0.00 | 0.33 | 0.33 | 96 | 1011.5 |
| 20260506122034 | 43 | 278 | 0.0 | 0.9 | 0.00 | 0.33 | 0.33 | 96 | 1011.4 |
| 20260506121531 | 43 | 277 | 1.7 | 2.6 | 0.00 | 0.33 | 0.33 | 97 | 1011.2 |
| 20260506121027 | 43 | 309 | 0.0 | 0.9 | 0.00 | 0.33 | 0.33 | 97 | 1011.1 |
| 20260506120525 | 43 | 286 | 0.0 | 1.7 | 0.00 | 0.33 | 0.33 | 97 | 1011.2 |
| 20260506120023 | 43 | 301 | 0.9 | 1.7 | 0.00 | 0.33 | 0.33 | 98 | 1010.9 |
| 20260506115520 | 43 | 198 | 0.9 | 0.9 | 0.00 | 0.33 | 0.33 | 98 | 1010.8 |
| 20260506115019 | 43 | 289 | 0.0 | 0.9 | 0.00 | 0.33 | 0.33 | 98 | 1010.9 |
| 20260506114515 | 42 | 352 | 0.0 | 0.9 | 0.00 | 0.33 | 0.33 | 98 | 1010.9 |
| 20260506114014 | 42 | 313 | 0.0 | 0.9 | 0.00 | 0.33 | 0.33 | 98 | 1010.7 |
| 20260506113511 | 42 | 273 | 0.0 | 0.0 | 0.00 | 0.33 | 0.33 | 98 | 1010.7 |
| 20260506113009 | 42 | 308 | 0.0 | 0.0 | 0.00 | 0.33 | 0.33 | 98 | 1010.9 |
| 20260506112505 | 42 | 270 | 0.0 | 0.0 | 0.00 | 0.33 | 0.33 | 99 | 1011.0 |
| 20260506112002 | 42 | 263 | 0.0 | 1.7 | 0.00 | 0.33 | 0.33 | 99 | 1011.2 |
| 20260506111500 | 42 | 305 | 0.0 | 2.6 | 0.00 | 0.33 | 0.33 | 99 | 1011.1 |
| 20260506110957 | 42 | 347 | 0.9 | 1.7 | 0.00 | 0.33 | 0.33 | 99 | 1011.3 |
| 20260506110455 | 42 | 311 | 0.9 | 0.9 | 0.00 | 0.33 | 0.33 | 99 | 1010.6 |
| 20260506105951 | 42 | 268 | 0.0 | 0.9 | 0.00 | 0.33 | 0.33 | 99 | 1010.3 |
| 20260506105448 | 43 | 262 | 0.0 | 0.0 | 0.00 | 0.33 | 0.33 | 99 | 1010.2 |
| 20260506104945 | 43 | 55 | 0.0 | 1.7 | 0.00 | 0.33 | 0.33 | 99 | 1010.0 |
| 20260506104443 | 43 | 231 | 0.0 | 0.0 | 0.00 | 0.33 | 0.33 | 99 | 1010.3 |
| 20260506103941 | 43 | 310 | 0.9 | 1.7 | 0.00 | 0.33 | 0.33 | 99 | 1010.6 |
| 20260506103438 | 43 | 311 | 1.7 | 3.5 | 0.00 | 0.33 | 0.33 | 99 | 1010.7 |
| 20260506102935 | 43 | 199 | 0.0 | 1.7 | 0.00 | 0.33 | 0.33 | 99 | 1010.3 |
| 20260506102433 | 43 | 163 | 0.0 | 0.0 | 0.00 | 0.33 | 0.33 | 99 | 1010.0 |
| 20260506101930 | 43 | 296 | 0.0 | 0.9 | 0.00 | 0.33 | 0.33 | 99 | 1010.1 |
| 20260506101426 | 43 | 279 | 0.0 | 0.9 | 0.00 | 0.33 | 0.33 | 99 | 1009.7 |
| 20260506100924 | 43 | 308 | 0.0 | 1.7 | 0.00 | 0.33 | 0.33 | 99 | 1009.8 |
| 20260506100422 | 43 | 288 | 0.9 | 0.9 | 0.00 | 0.33 | 0.33 | 99 | 1009.6 |
| 20260506095920 | 43 | 279 | 0.9 | 1.7 | 0.00 | 0.33 | 0.33 | 99 | 1009.4 |
| 20260506095418 | 43 | 64 | 0.9 | 0.9 | 0.00 | 0.33 | 0.33 | 99 | 1009.4 |
| 20260506094914 | 43 | 298 | 0.0 | 0.0 | 0.00 | 0.33 | 0.33 | 99 | 1009.2 |
| 20260506094413 | 43 | 166 | 0.0 | 0.0 | 0.00 | 0.33 | 0.33 | 99 | 1009.2 |
| 20260506093910 | 43 | 307 | 0.0 | 0.9 | 0.00 | 0.33 | 0.33 | 99 | 1008.9 |
| 20260506093407 | 43 | 160 | 0.0 | 0.0 | 0.00 | 0.33 | 0.33 | 99 | 1008.8 |
| 20260506092905 | 43 | 98 | 0.0 | 0.9 | 0.00 | 0.33 | 0.33 | 99 | 1009.0 |
| 20260506092403 | 43 | 319 | 0.0 | 0.9 | 0.00 | 0.33 | 0.33 | 99 | 1009.4 |
| 20260506091859 | 43 | 12 | 0.0 | 0.9 | 0.07 | 0.33 | 0.33 | 99 | 1009.4 |
| 20260506091357 | 43 | 353 | 1.7 | 2.6 | 0.00 | 0.32 | 0.32 | 99 | 1009.7 |
| 20260506090854 | 44 | 327 | 0.0 | 0.9 | 0.00 | 0.32 | 0.32 | 99 | 1009.6 |
| 20260506090352 | 44 | 343 | 0.0 | 0.9 | 0.07 | 0.32 | 0.32 | 99 | 1010.1 |
| 20260506085848 | 44 | 274 | 0.0 | 0.9 | 0.07 | 0.32 | 0.32 | 99 | 1010.1 |
| 20260506085345 | 44 | 284 | 0.0 | 0.9 | 0.00 | 0.31 | 0.31 | 99 | 1009.8 |
| 20260506084841 | 44 | 318 | 0.0 | 1.7 | 0.00 | 0.31 | 0.31 | 99 | 1009.8 |
| 20260506084338 | 44 | 292 | 0.0 | 0.0 | 0.05 | 0.31 | 0.31 | 99 | 1010.0 |
| 20260506083834 | 44 | 28 | 0.9 | 1.7 | 0.05 | 0.31 | 0.31 | 99 | 1010.2 |
| 20260506083332 | 44 | 16 | 0.0 | 1.7 | 0.00 | 0.30 | 0.30 | 99 | 1010.1 |
| 20260506082829 | 44 | 327 | 1.7 | 2.6 | 0.00 | 0.30 | 0.30 | 99 | 1010.2 |
| 20260506082326 | 44 | 212 | 0.0 | 0.0 | 0.07 | 0.30 | 0.30 | 99 | 1009.7 |
| 20260506081822 | 44 | 344 | 0.9 | 1.7 | 0.07 | 0.30 | 0.30 | 99 | 1009.7 |
| 20260506081320 | 44 | 307 | 0.0 | 0.9 | 0.00 | 0.29 | 0.29 | 99 | 1009.6 |
| 20260506080817 | 44 | 307 | 0.0 | 0.9 | 0.00 | 0.29 | 0.29 | 99 | 1009.4 |
| 20260506080313 | 43 | 236 | 0.0 | 0.0 | 0.00 | 0.29 | 0.29 | 99 | 1009.4 |
| 20260506073258 | 44 | 3 | 0.0 | 2.6 | 0.05 | 0.27 | 0.27 | 99 | 1010.0 |
| 20260506072754 | 43 | 280 | 0.0 | 0.9 | 0.05 | 0.27 | 0.27 | 99 | 1009.8 |
| 20260506072252 | 44 | 134 | 0.9 | 0.9 | 0.07 | 0.26 | 0.26 | 99 | 1009.7 |
| 20260506071749 | 44 | 252 | 0.0 | 2.6 | 0.12 | 0.26 | 0.26 | 99 | 1009.6 |
| 20260506071247 | 44 | 350 | 0.9 | 0.9 | 0.05 | 0.25 | 0.25 | 99 | 1009.6 |
| 20260506070744 | 44 | 298 | 0.0 | 1.7 | 0.07 | 0.24 | 0.24 | 99 | 1009.5 |
| 20260506070241 | 44 | 251 | 0.9 | 2.6 | 0.05 | 0.23 | 0.23 | 99 | 1009.5 |
| 20260506062218 | 45 | 356 | 0.9 | 2.6 | 0.12 | 0.17 | 0.17 | 99 | 1009.5 |
| 20260506061714 | 46 | 181 | 0.0 | 0.0 | 0.12 | 0.16 | 0.16 | 99 | 1009.3 |
| 20260506061211 | 46 | 242 | 0.0 | 1.7 | 0.12 | 0.15 | 0.15 | 99 | 1009.5 |
| 20260506060710 | 46 | 284 | 0.9 | 2.6 | 0.12 | 0.14 | 0.14 | 99 | 1009.3 |
| 20260506060206 | 46 | 37 | 1.7 | 1.7 | 0.05 | 0.12 | 0.12 | 99 | 1009.4 |
| 20260506051138 | 47 | 175 | 0.0 | 0.9 | 0.07 | 0.06 | 0.06 | 99 | 1009.7 |
| 20260506050637 | 47 | 287 | 0.0 | 0.0 | 0.00 | 0.05 | 0.05 | 99 | 1009.7 |
| 20260506050133 | 47 | 235 | 0.0 | 0.0 | 0.05 | 0.05 | 0.05 | 99 | 1009.8 |
| 20260506045127 | 47 | 46 | 0.0 | 0.0 | 0.00 | 0.04 | 0.04 | 99 | 1009.6 |
| 20260506044625 | 47 | 46 | 0.0 | 0.0 | 0.07 | 0.04 | 0.04 | 99 | 1009.7 |
| 20260506044121 | 47 | 138 | 0.0 | 0.0 | 0.05 | 0.03 | 0.03 | 99 | 1009.6 |
| 20260506043619 | 47 | 0 | 0.0 | 1.7 | 0.05 | 0.03 | 0.03 | 99 | 1009.7 |
| 20260506043117 | 47 | 220 | 0.0 | 0.0 | 0.07 | 0.02 | 0.02 | 99 | 1009.5 |
| 20260506042615 | 47 | 21 | 0.0 | 1.7 | 0.07 | 0.02 | 0.02 | 99 | 1009.7 |
| 20260506042113 | 47 | 274 | 0.0 | 0.0 | 0.00 | 0.01 | 0.01 | 99 | 1009.8 |
| 20260506041612 | 47 | 325 | 0.0 | 0.0 | 0.00 | 0.01 | 0.01 | 99 | 1009.7 |
| 20260506041108 | 47 | 8 | 0.0 | 0.0 | 0.05 | 0.01 | 0.01 | 99 | 1009.8 |
| 20260506040606 | 47 | 295 | 0.0 | 0.9 | 0.05 | 0.01 | 0.01 | 99 | 1009.8 |
| 20260506035559 | 47 | 199 | 0.0 | 0.9 | 0.00 | 1.07 | 1.07 | 99 | 1009.8 |
| 20260506035055 | 47 | 282 | 0.0 | 0.0 | 0.05 | 1.07 | 1.07 | 99 | 1010.0 |
| 20260506034553 | 47 | 332 | 0.0 | 0.9 | 0.12 | 1.07 | 1.07 | 99 | 1010.0 |
| 20260506034049 | 47 | 283 | 0.0 | 0.9 | 0.07 | 1.06 | 1.06 | 99 | 1010.2 |
| 20260506033547 | 48 | 289 | 0.0 | 1.7 | 0.05 | 1.05 | 1.05 | 99 | 1010.3 |
| 20260506033044 | 47 | 286 | 0.0 | 0.0 | 0.19 | 1.05 | 1.05 | 99 | 1010.3 |
| 20260506032541 | 48 | 323 | 0.0 | 1.7 | 0.19 | 1.04 | 1.04 | 99 | 1010.3 |
| 20260506032038 | 48 | 6 | 0.0 | 0.9 | 0.05 | 1.02 | 1.02 | 99 | 1010.5 |
| 20260506031536 | 48 | 294 | 0.0 | 0.9 | 0.07 | 1.01 | 1.01 | 99 | 1010.6 |
| 20260506031032 | 48 | 247 | 0.0 | 0.0 | 0.12 | 1.01 | 1.01 | 99 | 1010.4 |
| 20260506030531 | 48 | 294 | 0.0 | 0.9 | 0.05 | 1.00 | 1.00 | 99 | 1010.6 |
| 20260506030027 | 48 | 291 | 0.0 | 0.0 | 0.07 | 0.99 | 0.99 | 99 | 1010.7 |
| 20260506025524 | 48 | 96 | 0.0 | 0.0 | 0.07 | 0.99 | 0.99 | 99 | 1010.8 |
| 20260506025020 | 48 | 107 | 0.0 | 1.7 | 0.05 | 0.98 | 0.98 | 99 | 1010.7 |
| 20260506024517 | 48 | 328 | 0.0 | 1.7 | 0.07 | 0.97 | 0.97 | 99 | 1010.8 |
| 20260506024014 | 49 | 307 | 2.6 | 2.6 | 0.12 | 0.97 | 0.97 | 99 | 1010.8 |
| 20260506023510 | 49 | 321 | 0.9 | 1.7 | 0.05 | 0.96 | 0.96 | 99 | 1010.5 |
| 20260506023008 | 49 | 307 | 0.9 | 0.9 | 0.07 | 0.95 | 0.95 | 99 | 1010.7 |
| 20260506022505 | 49 | 6 | 0.0 | 2.6 | 0.12 | 0.95 | 0.95 | 99 | 1010.7 |
| 20260506022002 | 49 | 300 | 0.0 | 1.7 | 0.12 | 0.94 | 0.94 | 99 | 1010.8 |
| 20260506021459 | 49 | 306 | 0.9 | 1.7 | 0.12 | 0.93 | 0.93 | 99 | 1010.7 |
| 20260506020957 | 49 | 320 | 0.0 | 0.0 | 0.12 | 0.92 | 0.92 | 99 | 1010.7 |
| 20260506020454 | 49 | 223 | 0.0 | 0.9 | 0.14 | 0.91 | 0.91 | 99 | 1010.8 |
| 20260506015951 | 49 | 244 | 0.0 | 0.9 | 0.12 | 0.90 | 0.90 | 99 | 1010.3 |
| 20260506015449 | 49 | 239 | 0.0 | 0.9 | 0.07 | 0.88 | 0.88 | 99 | 1010.5 |
| 20260506014945 | 49 | 23 | 0.0 | 0.0 | 0.12 | 0.88 | 0.88 | 99 | 1010.3 |
| 20260506014442 | 49 | 22 | 0.0 | 0.0 | 0.12 | 0.87 | 0.87 | 99 | 1010.3 |
| 20260506013939 | 49 | 23 | 0.0 | 0.0 | 0.07 | 0.86 | 0.86 | 99 | 1010.2 |
| 20260506013437 | 49 | 289 | 0.0 | 0.9 | 0.05 | 0.85 | 0.85 | 99 | 1010.4 |
| 20260506012933 | 49 | 232 | 0.0 | 0.9 | 0.12 | 0.85 | 0.85 | 99 | 1010.1 |
| 20260506012429 | 49 | 75 | 0.0 | 0.9 | 0.12 | 0.84 | 0.84 | 99 | 1010.1 |
| 20260506011926 | 49 | 300 | 0.0 | 0.9 | 0.05 | 0.83 | 0.83 | 99 | 1010.2 |
| 20260506011424 | 49 | 173 | 0.9 | 0.9 | 0.07 | 0.82 | 0.82 | 99 | 1010.1 |
| 20260506010920 | 49 | 304 | 0.0 | 2.6 | 0.12 | 0.82 | 0.82 | 98 | 1009.7 |
| 20260506010419 | 49 | 289 | 0.9 | 2.6 | 0.17 | 0.81 | 0.81 | 98 | 1009.8 |
| 20260506005915 | 49 | 355 | 0.0 | 0.9 | 0.26 | 0.80 | 0.80 | 98 | 1009.8 |
| 20260506005413 | 50 | 302 | 0.9 | 5.2 | 0.38 | 0.78 | 0.78 | 98 | 1009.8 |
| 20260506004908 | 51 | 350 | 0.9 | 2.6 | 0.47 | 0.75 | 0.75 | 98 | 1009.8 |
| 20260506004407 | 53 | 301 | 2.6 | 5.2 | 0.50 | 0.71 | 0.71 | 98 | 1009.8 |
| 20260506003902 | 53 | 342 | 0.9 | 1.7 | 0.31 | 0.66 | 0.66 | 99 | 1009.4 |
| 20260506003358 | 55 | 171 | 0.0 | 0.0 | 0.24 | 0.63 | 0.63 | 99 | 1009.3 |
| 20260506002855 | 55 | 331 | 0.9 | 0.9 | 0.17 | 0.61 | 0.61 | 99 | 1009.3 |
| 20260506002351 | 55 | 328 | 0.0 | 0.0 | 0.17 | 0.59 | 0.59 | 99 | 1009.0 |
| 20260506001847 | 55 | 309 | 0.0 | 0.0 | 0.31 | 0.58 | 0.58 | 99 | 1009.2 |
| 20260506001344 | 54 | 309 | 0.0 | 0.0 | 0.24 | 0.55 | 0.55 | 99 | 1009.1 |
| 20260506000841 | 54 | 269 | 0.0 | 0.0 | 0.19 | 0.53 | 0.53 | 98 | 1009.2 |
| 20260506000340 | 54 | 322 | 0.0 | 0.0 | 0.12 | 0.51 | 0.51 | 98 | 1009.2 |
| 20260505235835 | 55 | 322 | 0.0 | 0.0 | 0.12 | 0.50 | 0.50 | 98 | 1009.1 |
| 20260505235333 | 55 | 316 | 0.0 | 0.0 | 0.05 | 0.48 | 0.48 | 98 | 1009.1 |
| 20260505234830 | 55 | 316 | 0.0 | 0.0 | 0.12 | 0.48 | 0.48 | 98 | 1009.2 |
| 20260505234328 | 56 | 258 | 0.0 | 0.0 | 0.12 | 0.47 | 0.47 | 98 | 1009.1 |
| 20260505233824 | 56 | 331 | 0.0 | 0.9 | 0.17 | 0.46 | 0.46 | 98 | 1009.2 |
| 20260505233322 | 56 | 331 | 0.0 | 0.9 | 0.24 | 0.45 | 0.45 | 98 | 1009.6 |
| 20260505232819 | 57 | 262 | 0.0 | 0.9 | 0.19 | 0.43 | 0.43 | 98 | 1009.3 |
| 20260505232317 | 57 | 246 | 0.0 | 0.0 | 0.19 | 0.41 | 0.41 | 98 | 1009.6 |
| 20260505231813 | 57 | 343 | 0.0 | 0.9 | 0.19 | 0.40 | 0.40 | 98 | 1009.5 |
| 20260505231312 | 57 | 259 | 0.0 | 0.9 | 0.12 | 0.38 | 0.38 | 98 | 1009.3 |
| 20260505230809 | 57 | 191 | 0.9 | 0.9 | 0.00 | 0.36 | 0.36 | 98 | 1009.5 |
| 20260505230306 | 57 | 230 | 0.0 | 0.0 | 0.00 | 0.36 | 0.36 | 98 | 1009.5 |
| 20260505225803 | 57 | 230 | 0.0 | 0.0 | 0.00 | 0.36 | 0.36 | 98 | 1009.4 |
| 20260505225300 | 57 | 230 | 0.0 | 0.0 | 0.00 | 0.36 | 0.36 | 98 | 1009.5 |
| 20260505224755 | 57 | 230 | 0.0 | 0.0 | 0.07 | 0.36 | 0.36 | 98 | 1009.5 |
| 20260505224253 | 57 | 230 | 0.0 | 0.0 | 0.07 | 0.36 | 0.36 | 98 | 1009.8 |
| 20260505223750 | 57 | 230 | 0.0 | 0.0 | 0.05 | 0.35 | 0.35 | 98 | 1009.6 |
| 20260505223247 | 57 | 230 | 0.0 | 0.0 | 0.12 | 0.35 | 0.35 | 98 | 1009.8 |
| 20260505222742 | 57 | 229 | 0.0 | 0.9 | 0.12 | 0.34 | 0.34 | 97 | 1009.8 |
| 20260505222239 | 57 | 273 | 0.0 | 0.9 | 0.17 | 0.33 | 0.33 | 97 | 1010.0 |
| 20260505221736 | 58 | 276 | 0.0 | 0.0 | 0.19 | 0.32 | 0.32 | 97 | 1009.7 |
| 20260505221233 | 58 | 325 | 0.0 | 0.9 | 0.19 | 0.30 | 0.30 | 97 | 1009.6 |
| 20260505220729 | 58 | 304 | 0.0 | 0.9 | 0.19 | 0.29 | 0.29 | 97 | 1009.8 |
| 20260505220227 | 58 | 319 | 0.0 | 0.0 | 0.42 | 0.27 | 0.27 | 96 | 1009.7 |
| 20260505215725 | 58 | 345 | 0.0 | 0.0 | 0.78 | 0.25 | 0.25 | 96 | 1009.8 |
| 20260505215223 | 58 | 324 | 0.0 | 0.9 | 0.66 | 0.20 | 0.20 | 96 | 1010.2 |
| 20260505214720 | 59 | 273 | 0.0 | 0.9 | 0.24 | 0.12 | 0.12 | 95 | 1010.1 |
| 20260505214218 | 59 | 228 | 0.0 | 0.0 | 0.05 | 0.09 | 0.09 | 94 | 1009.5 |
| 20260505213715 | 0 | 0.0 | 0.0 | 0.00 | 0.08 | 0.08 | 1009.2 | ||
| 20260505213212 | 59 | 228 | 0.0 | 0.0 | 0.00 | 0.08 | 0.08 | 94 | 1009.0 |
| 20260505212708 | 59 | 228 | 0.0 | 0.9 | 0.00 | 0.08 | 0.08 | 94 | 1009.1 |
| 20260505212205 | 0 | 0.0 | 0.0 | 0.00 | 0.08 | 0.08 | 1009.1 | ||
| 20260505211702 | 0 | 0.0 | 0.0 | 0.00 | 0.08 | 0.08 | 1009.2 | ||
| 20260505211159 | 59 | 271 | 0.0 | 0.0 | 0.00 | 0.08 | 0.08 | 94 | 1009.2 |
| 20260505210656 | 59 | 271 | 0.0 | 0.0 | 0.00 | 0.08 | 0.08 | 94 | 1009.2 |
| 20260505210153 | 59 | 279 | 0.0 | 0.0 | 0.00 | 0.08 | 0.08 | 94 | 1009.4 |
| 20260505205650 | 59 | 339 | 0.0 | 0.0 | 0.00 | 0.08 | 0.08 | 94 | 1009.3 |
| 20260505205148 | 59 | 357 | 0.0 | 0.0 | 0.00 | 0.08 | 0.08 | 95 | 1009.2 |
| 20260505204644 | 59 | 276 | 0.9 | 0.9 | 0.00 | 0.08 | 0.08 | 95 | 1009.5 |
| 20260505204143 | 58 | 338 | 0.0 | 0.9 | 0.00 | 0.08 | 0.08 | 95 | 1009.6 |
| 20260505203639 | 58 | 264 | 0.0 | 0.0 | 0.00 | 0.08 | 0.08 | 95 | 1009.6 |
| 20260505203136 | 58 | 276 | 0.0 | 0.0 | 0.00 | 0.08 | 0.08 | 94 | 1009.6 |
| 20260505202632 | 58 | 264 | 0.0 | 0.0 | 0.00 | 0.08 | 0.08 | 95 | 1009.7 |
| 20260505202128 | 58 | 7 | 0.0 | 0.0 | 0.00 | 0.08 | 0.08 | 94 | 1009.5 |
| 20260505201619 | 58 | 7 | 0.0 | 0.9 | 0.07 | 0.08 | 0.08 | 94 | 1009.7 |
| 20260505201117 | 59 | 300 | 0.0 | 0.0 | 0.19 | 0.08 | 0.08 | 94 | 1010.0 |
| 20260505200615 | 58 | 282 | 0.0 | 0.0 | 0.12 | 0.07 | 0.07 | 94 | 1010.0 |
| 20260505200112 | 0 | 0.0 | 0.0 | 0.00 | 0.05 | 0.05 | 1010.1 | ||
| 20260505195608 | 0 | 0.0 | 0.0 | 0.00 | 0.05 | 0.05 | 1009.8 | ||
| 20260505195106 | 0 | 0.0 | 0.0 | 0.00 | 0.05 | 0.05 | 1010.0 | ||
| 20260505194602 | 0 | 0.0 | 0.0 | 0.00 | 0.05 | 0.05 | 1010.0 | ||
| 20260505194057 | 60 | 20 | 0.0 | 0.0 | 0.05 | 0.05 | 0.05 | 90 | 1010.2 |
| 20260505193555 | 60 | 20 | 0.0 | 0.0 | 0.24 | 0.05 | 0.05 | 90 | 1010.4 |
| 20260505193052 | 0 | 0.0 | 0.0 | 0.00 | 0.01 | 0.01 | 1010.2 | ||
| 20260505192550 | 0 | 0.0 | 0.0 | 0.00 | 0.01 | 0.01 | 1010.1 | ||
| 20260505192048 | 0 | 0.0 | 0.0 | 0.00 | 0.01 | 0.01 | 1010.2 | ||
| 20260505191545 | 0 | 0.0 | 0.0 | 0.00 | 0.01 | 0.01 | 1010.1 | ||
| 20260505191043 | 0 | 0.0 | 0.0 | 0.00 | 0.01 | 0.01 | 1010.0 | ||
| 20260505190538 | 0 | 0.0 | 0.0 | 0.00 | 0.01 | 0.01 | 1010.0 | ||
| 20260505190034 | 0 | 0.0 | 0.0 | 0.00 | 0.01 | 0.01 | 1010.0 | ||
| 20260505185531 | 0 | 0.0 | 0.0 | 0.00 | 0.01 | 0.01 | 1009.8 |